| time (UTC) | temp C | wind direction | speed KPH | gust KPH | rain 1hr cm | rain 24hr cm | rain mn cm | humidity % | barometer mb |
| 20260504100154 | 6 | 4 | 0.0 | 3.2 | 0.00 | 0.00 | 0.00 | 78 | 1012.1 |
| 20260504090117 | 6 | 123 | 3.2 | 3.2 | 0.00 | 0.00 | 0.00 | 79 | 1011.8 |
| 20260504081552 | 7 | 43 | 0.0 | 4.8 | 0.00 | 0.00 | 0.00 | 76 | 1011.8 |
| 20260504081048 | 7 | 65 | 1.6 | 3.2 | 0.00 | 0.00 | 0.00 | 76 | 1011.9 |
| 20260504080545 | 7 | 153 | 3.2 | 3.2 | 0.00 | 0.00 | 0.00 | 76 | 1011.9 |
| 20260504050352 | 6 | 17 | 0.0 | 1.6 | 0.00 | 0.00 | 0.00 | 80 | 1012.5 |
| 20260504045849 | 6 | 13 | 0.0 | 1.6 | 0.00 | 0.00 | 0.00 | 80 | 1012.6 |
| 20260504045344 | 6 | 14 | 0.0 | 0.0 | 0.00 | 0.00 | 0.00 | 79 | 1012.8 |
| 20260504044841 | 6 | 14 | 0.0 | 0.0 | 0.00 | 0.00 | 0.00 | 79 | 1012.6 |
| 20260504044339 | 6 | 13 | 0.0 | 0.0 | 0.00 | 0.00 | 0.00 | 80 | 1012.9 |
| 20260504043836 | 6 | 14 | 0.0 | 0.0 | 0.00 | 0.00 | 0.00 | 80 | 1012.8 |
| 20260504043333 | 6 | 14 | 0.0 | 0.0 | 0.00 | 0.00 | 0.00 | 80 | 1012.8 |
| 20260504042830 | 6 | 4 | 0.0 | 0.0 | 0.00 | 0.00 | 0.00 | 80 | 1012.9 |
| 20260504042326 | 6 | 3 | 0.0 | 0.0 | 0.00 | 0.00 | 0.00 | 79 | 1013.0 |
| 20260504041823 | 6 | 3 | 0.0 | 1.6 | 0.00 | 0.00 | 0.00 | 79 | 1013.0 |
| 20260504041319 | 5 | 348 | 0.0 | 0.0 | 0.00 | 0.00 | 0.00 | 79 | 1012.8 |
| 20260504040815 | 5 | 346 | 3.2 | 4.8 | 0.00 | 0.00 | 0.00 | 81 | 1012.8 |
| 20260504040313 | 5 | 356 | 0.0 | 0.0 | 0.00 | 0.00 | 0.00 | 80 | 1012.8 |
| 20260504035809 | 5 | 356 | 0.0 | 0.0 | 0.00 | 0.00 | 0.00 | 77 | 1012.9 |
| 20260504035306 | 5 | 356 | 0.0 | 0.0 | 0.00 | 0.00 | 0.00 | 76 | 1012.7 |
| 20260504034803 | 5 | 356 | 0.0 | 0.0 | 0.00 | 0.00 | 0.00 | 78 | 1012.7 |
| 20260504034301 | 5 | 355 | 0.0 | 0.0 | 0.00 | 0.00 | 0.00 | 78 | 1012.8 |
| 20260504033758 | 5 | 355 | 0.0 | 0.0 | 0.00 | 0.00 | 0.00 | 80 | 1012.7 |
| 20260504033255 | 5 | 355 | 0.0 | 0.0 | 0.00 | 0.00 | 0.00 | 79 | 1012.5 |
| 20260504032752 | 5 | 355 | 0.0 | 0.0 | 0.00 | 0.00 | 0.00 | 79 | 1012.6 |
| 20260504032249 | 5 | 355 | 0.0 | 0.0 | 0.00 | 0.00 | 0.00 | 79 | 1012.7 |
| 20260504031746 | 5 | 355 | 0.0 | 0.0 | 0.00 | 0.00 | 0.00 | 78 | 1012.6 |
| 20260504031243 | 4 | 355 | 1.6 | 3.2 | 0.00 | 0.00 | 0.00 | 78 | 1012.4 |
| 20260504030739 | 3 | 355 | 0.0 | 0.0 | 0.00 | 0.00 | 0.00 | 75 | 1012.4 |
| 20260504030237 | 4 | 355 | 0.0 | 0.0 | 0.00 | 0.00 | 0.00 | 78 | 1012.5 |
| 20260504025733 | 3 | 355 | 0.0 | 0.0 | 0.00 | 0.00 | 0.00 | 79 | 1012.6 |
| 20260504025230 | 3 | 355 | 0.0 | 0.0 | 0.00 | 0.00 | 0.00 | 79 | 1012.4 |
| 20260504024727 | 3 | 355 | 0.0 | 0.0 | 0.00 | 0.00 | 0.00 | 78 | 1012.5 |
| 20260504024223 | 3 | 355 | 0.0 | 0.0 | 0.00 | 0.00 | 0.00 | 75 | 1012.3 |
| 20260504023720 | 3 | 355 | 0.0 | 0.0 | 0.00 | 0.00 | 0.00 | 75 | 1012.4 |
| 20260504023216 | 3 | 355 | 0.0 | 0.0 | 0.00 | 0.00 | 0.00 | 75 | 1012.4 |
| 20260504022712 | 3 | 355 | 0.0 | 0.0 | 0.00 | 0.00 | 0.00 | 74 | 1012.3 |
| 20260504022209 | 3 | 355 | 0.0 | 0.0 | 0.00 | 0.00 | 0.00 | 74 | 1012.5 |
| 20260504021706 | 4 | 355 | 0.0 | 0.0 | 0.00 | 0.00 | 0.00 | 73 | 1012.4 |
| 20260504021203 | 5 | 355 | 0.0 | 0.0 | 0.00 | 0.00 | 0.00 | 74 | 1012.7 |
| 20260504020700 | 4 | 355 | 0.0 | 0.0 | 0.00 | 0.00 | 0.00 | 72 | 1012.7 |
| 20260504020155 | 5 | 355 | 0.0 | 0.0 | 0.00 | 0.00 | 0.00 | 71 | 1012.7 |
| 20260504015652 | 5 | 355 | 0.0 | 0.0 | 0.00 | 0.00 | 0.00 | 69 | 1012.6 |
| 20260504015149 | 5 | 355 | 0.0 | 0.0 | 0.00 | 0.00 | 0.00 | 69 | 1012.6 |
| 20260504014644 | 5 | 355 | 0.0 | 0.0 | 0.00 | 0.00 | 0.00 | 67 | 1012.5 |
| 20260504014142 | 5 | 354 | 0.0 | 0.0 | 0.00 | 0.00 | 0.00 | 65 | 1012.7 |
| 20260504013640 | 6 | 355 | 0.0 | 0.0 | 0.00 | 0.00 | 0.00 | 68 | 1012.5 |
| 20260504013136 | 6 | 355 | 0.0 | 0.0 | 0.00 | 0.00 | 0.00 | 67 | 1012.6 |
| 20260504012633 | 6 | 355 | 0.0 | 0.0 | 0.00 | 0.00 | 0.00 | 65 | 1012.3 |
| 20260504012131 | 6 | 355 | 0.0 | 0.0 | 0.00 | 0.00 | 0.00 | 63 | 1012.2 |
| 20260504011628 | 6 | 355 | 0.0 | 0.0 | 0.00 | 0.00 | 0.00 | 61 | 1012.2 |
| 20260504011125 | 7 | 355 | 0.0 | 0.0 | 0.00 | 0.00 | 0.00 | 59 | 1012.3 |
| 20260504010620 | 7 | 355 | 0.0 | 0.0 | 0.00 | 0.00 | 0.00 | 57 | 1012.3 |
| 20260504010116 | 7 | 355 | 0.0 | 0.0 | 0.00 | 0.00 | 0.00 | 55 | 1012.0 |
| 20260504005614 | 7 | 354 | 0.0 | 0.0 | 0.00 | 0.00 | 0.00 | 54 | 1012.0 |
| 20260504005110 | 7 | 355 | 0.0 | 0.0 | 0.00 | 0.00 | 0.00 | 53 | 1012.1 |
| 20260504004609 | 8 | 354 | 0.0 | 0.0 | 0.00 | 0.00 | 0.00 | 52 | 1012.0 |
| 20260504004105 | 8 | 354 | 0.0 | 0.0 | 0.00 | 0.00 | 0.00 | 51 | 1011.9 |
| 20260504003601 | 8 | 353 | 0.0 | 0.0 | 0.00 | 0.00 | 0.00 | 49 | 1012.1 |
| 20260504003058 | 8 | 351 | 0.0 | 1.6 | 0.00 | 0.00 | 0.00 | 49 | 1011.9 |
| 20260504002555 | 9 | 358 | 0.0 | 0.0 | 0.00 | 0.00 | 0.00 | 49 | 1011.9 |
| 20260504002053 | 9 | 358 | 0.0 | 0.0 | 0.00 | 0.00 | 0.00 | 47 | 1011.8 |
| 20260504001550 | 10 | 358 | 0.0 | 0.0 | 0.00 | 0.00 | 0.00 | 46 | 1011.8 |
| 20260504001046 | 10 | 357 | 0.0 | 0.0 | 0.00 | 0.00 | 0.00 | 45 | 1011.7 |
| 20260504000543 | 10 | 11 | 0.0 | 1.6 | 0.00 | 0.00 | 0.00 | 45 | 1011.6 |
| 20260504000041 | 11 | 345 | 0.0 | 9.7 | 0.00 | 0.00 | 0.00 | 43 | 1011.5 |
| 20260503235539 | 11 | 4 | 0.0 | 1.6 | 0.00 | 0.00 | 0.00 | 44 | 1011.6 |
| 20260503235035 | 11 | 2 | 0.0 | 1.6 | 0.00 | 0.00 | 0.00 | 43 | 1011.5 |
| 20260503234533 | 11 | 350 | 1.6 | 3.2 | 0.00 | 0.00 | 0.00 | 41 | 1011.6 |
| 20260503234031 | 11 | 354 | 0.0 | 1.6 | 0.00 | 0.00 | 0.00 | 41 | 1011.4 |
| 20260503233527 | 11 | 324 | 3.2 | 4.8 | 0.00 | 0.00 | 0.00 | 40 | 1011.3 |
| 20260503233023 | 12 | 311 | 3.2 | 6.4 | 0.00 | 0.00 | 0.00 | 39 | 1011.3 |
| 20260503232520 | 12 | 315 | 9.7 | 20.9 | 0.00 | 0.00 | 0.00 | 38 | 1011.2 |
| 20260503232018 | 12 | 354 | 4.8 | 12.9 | 0.00 | 0.00 | 0.00 | 38 | 1011.0 |
| 20260503231516 | 12 | 2 | 1.6 | 4.8 | 0.00 | 0.00 | 0.00 | 37 | 1011.0 |
| 20260503231012 | 12 | 316 | 11.3 | 12.9 | 0.00 | 0.00 | 0.00 | 37 | 1011.1 |
| 20260503230509 | 12 | 293 | 4.8 | 12.9 | 0.00 | 0.00 | 0.00 | 36 | 1010.9 |
| 20260503230007 | 12 | 192 | 1.6 | 11.3 | 0.00 | 0.00 | 0.00 | 37 | 1010.9 |
| 20260503225503 | 12 | 6 | 1.6 | 16.1 | 0.00 | 0.00 | 0.00 | 35 | 1010.9 |
| 20260503224958 | 12 | 304 | 6.4 | 6.4 | 0.00 | 0.00 | 0.00 | 36 | 1011.0 |
| 20260503224455 | 12 | 223 | 6.4 | 11.3 | 0.00 | 0.00 | 0.00 | 36 | 1011.0 |
| 20260503223953 | 12 | 331 | 0.0 | 11.3 | 0.00 | 0.00 | 0.00 | 40 | 1010.8 |
| 20260503223451 | 12 | 344 | 1.6 | 14.5 | 0.00 | 0.00 | 0.00 | 36 | 1010.8 |
| 20260503222946 | 12 | 338 | 1.6 | 9.7 | 0.00 | 0.00 | 0.00 | 33 | 1010.7 |
| 20260503222445 | 13 | 336 | 3.2 | 4.8 | 0.00 | 0.00 | 0.00 | 32 | 1010.8 |
| 20260503221943 | 13 | 289 | 4.8 | 16.1 | 0.00 | 0.00 | 0.00 | 31 | 1010.7 |
| 20260503221441 | 13 | 224 | 6.4 | 11.3 | 0.00 | 0.00 | 0.00 | 32 | 1010.7 |
| 20260503220937 | 13 | 309 | 3.2 | 14.5 | 0.00 | 0.00 | 0.00 | 34 | 1010.6 |
| 20260503220434 | 13 | 329 | 1.6 | 9.7 | 0.00 | 0.00 | 0.00 | 31 | 1010.6 |
| 20260503215931 | 13 | 333 | 3.2 | 4.8 | 0.00 | 0.00 | 0.00 | 32 | 1010.7 |
| 20260503215428 | 13 | 354 | 3.2 | 17.7 | 0.00 | 0.00 | 0.00 | 30 | 1010.8 |
| 20260503214926 | 13 | 341 | 11.3 | 12.9 | 0.00 | 0.00 | 0.00 | 29 | 1010.7 |
| 20260503214423 | 13 | 343 | 17.7 | 25.7 | 0.00 | 0.00 | 0.00 | 29 | 1010.9 |
| 20260503213920 | 13 | 327 | 16.1 | 24.1 | 0.00 | 0.00 | 0.00 | 29 | 1010.9 |
| 20260503213418 | 13 | 6 | 0.0 | 12.9 | 0.00 | 0.00 | 0.00 | 33 | 1010.7 |
| 20260503212914 | 13 | 323 | 16.1 | 20.9 | 0.00 | 0.00 | 0.00 | 29 | 1010.6 |
| 20260503212412 | 13 | 262 | 9.7 | 17.7 | 0.00 | 0.00 | 0.00 | 30 | 1010.6 |
| 20260503211910 | 13 | 335 | 3.2 | 9.7 | 0.00 | 0.00 | 0.00 | 30 | 1010.5 |
| 20260503211406 | 13 | 359 | 17.7 | 27.4 | 0.00 | 0.00 | 0.00 | 29 | 1010.6 |
| 20260503210901 | 13 | 347 | 19.3 | 29.0 | 0.00 | 0.00 | 0.00 | 29 | 1010.5 |
| 20260503210359 | 13 | 1 | 9.7 | 17.7 | 0.00 | 0.00 | 0.00 | 31 | 1010.5 |
| 20260503205853 | 13 | 306 | 6.4 | 11.3 | 0.00 | 0.00 | 0.00 | 32 | 1010.6 |
| 20260503205350 | 13 | 281 | 9.7 | 12.9 | 0.00 | 0.00 | 0.00 | 30 | 1010.6 |
| 20260503204847 | 13 | 315 | 16.1 | 20.9 | 0.00 | 0.00 | 0.00 | 31 | 1010.6 |
| 20260503204344 | 13 | 215 | 8.0 | 20.9 | 0.00 | 0.00 | 0.00 | 31 | 1010.5 |
| 20260503203841 | 13 | 327 | 3.2 | 11.3 | 0.00 | 0.00 | 0.00 | 35 | 1010.7 |
| 20260503203339 | 13 | 280 | 9.7 | 16.1 | 0.00 | 0.00 | 0.00 | 33 | 1010.9 |
| 20260503202835 | 12 | 318 | 3.2 | 22.5 | 0.00 | 0.00 | 0.00 | 34 | 1010.9 |
| 20260503202334 | 12 | 315 | 6.4 | 24.1 | 0.00 | 0.00 | 0.00 | 37 | 1010.9 |
| 20260503201832 | 12 | 326 | 9.7 | 16.1 | 0.00 | 0.00 | 0.00 | 36 | 1010.9 |
| 20260503201328 | 12 | 266 | 6.4 | 9.7 | 0.00 | 0.00 | 0.00 | 38 | 1011.0 |
| 20260503200826 | 12 | 0 | 14.5 | 17.7 | 0.00 | 0.00 | 0.00 | 37 | 1011.1 |
| 20260503200321 | 11 | 300 | 6.4 | 22.5 | 0.00 | 0.00 | 0.00 | 37 | 1011.0 |
| 20260503195819 | 11 | 343 | 14.5 | 20.9 | 0.00 | 0.00 | 0.00 | 36 | 1010.9 |
| 20260503195315 | 12 | 358 | 6.4 | 16.1 | 0.00 | 0.00 | 0.00 | 38 | 1011.1 |
| 20260503194813 | 11 | 5 | 9.7 | 22.5 | 0.00 | 0.00 | 0.00 | 38 | 1011.2 |
| 20260503194309 | 12 | 331 | 9.7 | 20.9 | 0.00 | 0.00 | 0.00 | 37 | 1011.5 |
| 20260503193805 | 11 | 359 | 17.7 | 20.9 | 0.00 | 0.00 | 0.00 | 37 | 1011.5 |
| 20260503193301 | 11 | 327 | 9.7 | 16.1 | 0.00 | 0.00 | 0.00 | 41 | 1011.5 |
| 20260503192757 | 11 | 358 | 12.9 | 17.7 | 0.00 | 0.00 | 0.00 | 38 | 1011.6 |
| 20260503192252 | 11 | 340 | 6.4 | 24.1 | 0.00 | 0.00 | 0.00 | 40 | 1011.7 |
| 20260503191749 | 11 | 316 | 14.5 | 25.7 | 0.00 | 0.00 | 0.00 | 39 | 1011.7 |
| 20260503191246 | 11 | 325 | 17.7 | 27.4 | 0.00 | 0.00 | 0.00 | 39 | 1011.5 |
| 20260503190743 | 11 | 326 | 12.9 | 24.1 | 0.00 | 0.00 | 0.00 | 38 | 1012.1 |
| 20260503190240 | 11 | 11 | 3.2 | 14.5 | 0.00 | 0.00 | 0.00 | 41 | 1011.9 |
| 20260503185737 | 12 | 334 | 9.7 | 12.9 | 0.00 | 0.00 | 0.00 | 40 | 1011.8 |
| 20260503185232 | 12 | 4 | 0.0 | 11.3 | 0.00 | 0.00 | 0.00 | 40 | 1012.0 |
| 20260503184727 | 11 | 320 | 11.3 | 14.5 | 0.00 | 0.00 | 0.00 | 40 | 1012.1 |
| 20260503184224 | 10 | 299 | 9.7 | 20.9 | 0.00 | 0.00 | 0.00 | 39 | 1012.1 |
| 20260503183720 | 11 | 245 | 3.2 | 6.4 | 0.00 | 0.00 | 0.00 | 42 | 1012.3 |
| 20260503183217 | 10 | 338 | 12.9 | 20.9 | 0.00 | 0.00 | 0.00 | 41 | 1012.2 |
| 20260503182716 | 11 | 310 | 11.3 | 17.7 | 0.00 | 0.00 | 0.00 | 40 | 1012.3 |
| 20260503182214 | 11 | 313 | 14.5 | 20.9 | 0.00 | 0.00 | 0.00 | 42 | 1012.3 |
| 20260503181710 | 10 | 332 | 9.7 | 12.9 | 0.00 | 0.00 | 0.00 | 43 | 1012.3 |
| 20260503181207 | 10 | 304 | 11.3 | 25.7 | 0.00 | 0.00 | 0.00 | 42 | 1012.4 |
| 20260503180704 | 10 | 345 | 4.8 | 16.1 | 0.00 | 0.00 | 0.00 | 42 | 1012.4 |
| 20260503180202 | 10 | 297 | 4.8 | 22.5 | 0.00 | 0.00 | 0.00 | 46 | 1012.5 |
| 20260503175659 | 10 | 338 | 11.3 | 25.7 | 0.00 | 0.00 | 0.00 | 45 | 1012.5 |
| 20260503175156 | 10 | 311 | 11.3 | 22.5 | 0.00 | 0.00 | 0.00 | 43 | 1012.5 |
| 20260503174652 | 10 | 334 | 12.9 | 24.1 | 0.00 | 0.00 | 0.00 | 44 | 1012.5 |
| 20260503174150 | 9 | 319 | 8.0 | 16.1 | 0.00 | 0.00 | 0.00 | 44 | 1012.3 |
| 20260503173645 | 10 | 350 | 12.9 | 24.1 | 0.00 | 0.00 | 0.00 | 43 | 1012.4 |
| 20260503173141 | 10 | 329 | 3.2 | 27.4 | 0.00 | 0.00 | 0.00 | 45 | 1012.3 |
| 20260503172638 | 10 | 347 | 14.5 | 16.1 | 0.00 | 0.00 | 0.00 | 44 | 1012.5 |
| 20260503172136 | 10 | 300 | 12.9 | 22.5 | 0.00 | 0.00 | 0.00 | 43 | 1012.4 |
| 20260503171632 | 11 | 5 | 8.0 | 11.3 | 0.00 | 0.00 | 0.00 | 43 | 1012.5 |
| 20260503171129 | 10 | 254 | 9.7 | 16.1 | 0.00 | 0.00 | 0.00 | 44 | 1012.5 |
| 20260503170626 | 10 | 356 | 6.4 | 22.5 | 0.00 | 0.00 | 0.00 | 45 | 1012.7 |
| 20260503170123 | 10 | 11 | 3.2 | 16.1 | 0.00 | 0.00 | 0.00 | 43 | 1012.5 |
| 20260503150515 | 10 | 351 | 4.8 | 17.7 | 0.00 | 0.00 | 0.00 | 43 | 1012.5 |
| 20260503131407 | 7 | 21 | 12.9 | 14.5 | 0.00 | 0.00 | 0.00 | 64 | 1013.3 |
| 20260503130904 | 6 | 320 | 8.0 | 12.9 | 0.00 | 0.00 | 0.00 | 66 | 1013.3 |
| 20260503130402 | 6 | 323 | 9.7 | 11.3 | 0.00 | 0.00 | 0.00 | 66 | 1013.3 |
| 20260503110806 | 5 | 338 | 1.6 | 9.7 | 0.00 | 0.00 | 0.00 | 73 | 1012.6 |
| 20260503110303 | 5 | 331 | 8.0 | 11.3 | 0.00 | 0.00 | 0.00 | 72 | 1012.6 |